Sevilla, Spain

6:06 AM CEST on June 27, 2017 (GMT +0200)
San Pablo

Weather History for LEZL - December, 2013

Change the Weather History Date:

Friday, December 6, 2013

  Actual Average Record
Temperature  
Mean Temperature 55 °F -  
Max Temperature 68 °F 60 °F 69 °F (2016)
Min Temperature 42 °F 43 °F 32 °F (1998)
Degree Days  
Heating Degree Days 10    
Growing Degree Days 5 (Base 50)    
Moisture  
Dew Point 36 °F    
Average Humidity 56    
Maximum Humidity 87    
Minimum Humidity 28    
Precipitation  
Precipitation 0.00 in - - ()
Sea Level Pressure  
Sea Level Pressure 30.22 in    
Wind  
Wind Speed 7 mph ()    
Max Wind Speed 13 mph    
Max Gust Speed -    
Averages and records for this station are not official NWS values.
T = Trace of Precipitation, MM = Missing Value Source: Averaged Metar Reports

Daily Weather History Graph

Daily Weather History Graph

Search for Another Location

Airport or City:

Trip Planner

Search our weather history database for the weather conditions in past years. The results will help you decide how hot, cold, wet, or windy it might be!

Date:

Astronomy

Dec. 06, 2013 Rise Set
Actual Time 8:23 AM CET 6:05 PM CET
Civil Twilight 7:54 AM CET 6:34 PM CET
Nautical Twilight 7:22 AM CET 7:06 PM CET
Astronomical Twilight 6:50 AM CET 7:38 PM CET
Moon 11:21 AM CET (12/6) 10:17 PM CET (12/6)
Length of Visible Light 10h 39m
Length of Day
9h 41m
Waxing Crescent, 17% of the Moon is Illuminated
Dec 6
Waxing Crescent
Dec 9
First Quarter
Dec 17
Full
Dec 25
Last Quarter
Jan 1
New

Hourly Weather History & Observations

Time (CET) Temp. Windchill Dew Point Humidity Pressure Visibility Wind Dir Wind Speed Gust Speed Precip Events Conditions
12:00 AM 46.4 °F 42.9 °F 41.0 °F 81% 30.27 in - NE 6.9 mph - N/A   Clear
12:30 AM 46.4 °F - 41.0 °F 81% 30.30 in - Variable 2.3 mph - N/A   Clear
1:00 AM 46.4 °F 45.2 °F 41.0 °F 81% 30.27 in - NE 3.5 mph - N/A   Clear
4:30 AM 42.8 °F 39.3 °F 39.2 °F 87% 30.24 in - NE 5.8 mph - N/A   Clear
5:00 AM 44.6 °F 38.8 °F 39.2 °F 81% 30.24 in - NE 11.5 mph - N/A   Clear
5:30 AM 46.4 °F 41.5 °F 39.2 °F 76% 30.24 in - NE 10.4 mph - N/A   Clear
6:00 AM 46.4 °F 41.5 °F 39.2 °F 76% 30.24 in - NE 10.4 mph - N/A   Clear
6:30 AM 44.6 °F 39.7 °F 37.4 °F 76% 30.24 in - NE 9.2 mph - N/A   Clear
7:00 AM 44.6 °F 39.2 °F 37.4 °F 76% 30.24 in - NE 10.4 mph - N/A   Clear
7:30 AM 44.6 °F 39.7 °F 37.4 °F 76% 30.24 in - NE 9.2 mph - N/A   Clear
8:00 AM 44.6 °F 39.2 °F 37.4 °F 76% 30.24 in - ENE 10.4 mph - N/A   Clear
8:30 AM 44.6 °F 39.7 °F 37.4 °F 76% 30.24 in - NE 9.2 mph - N/A   Clear
9:00 AM 44.6 °F 40.2 °F 37.4 °F 76% 30.24 in - NE 8.1 mph - N/A   Clear
9:30 AM 46.4 °F 40.7 °F 37.4 °F 71% 30.27 in - NE 12.7 mph - N/A   Clear
10:00 AM 48.2 °F - 37.4 °F 66% 30.27 in - NE 11.5 mph - N/A   Clear
10:30 AM 50.0 °F - 37.4 °F 62% 30.27 in - NE 11.5 mph - N/A   Clear
11:00 AM 51.8 °F - 37.4 °F 58% 30.27 in - ENE 12.7 mph - N/A   Clear
11:30 AM 55.4 °F - 37.4 °F 51% 30.27 in - NE 11.5 mph - N/A   Clear
12:00 PM 57.2 °F - 37.4 °F 48% 30.27 in - NE 11.5 mph - N/A   Clear
12:30 PM 59.0 °F - 37.4 °F 45% 30.27 in - NE 10.4 mph - N/A   Clear
1:00 PM 60.8 °F - 37.4 °F 42% 30.24 in - ENE 10.4 mph - N/A   Clear
1:30 PM 62.6 °F - 37.4 °F 39% 30.21 in - ENE 11.5 mph - N/A   Clear
2:00 PM 64.4 °F - 37.4 °F 37% 30.21 in - ENE 12.7 mph - N/A   Clear
2:30 PM 66.2 °F - 35.6 °F 32% 30.18 in - ENE 12.7 mph - N/A   Clear
3:00 PM 66.2 °F - 33.8 °F 30% 30.18 in - ENE 10.4 mph - N/A   Clear
3:30 PM 68.0 °F - 35.6 °F 30% 30.18 in - East 8.1 mph - N/A   Clear
4:00 PM 68.0 °F - 33.8 °F 28% 30.18 in - ENE 9.2 mph - N/A   Clear
4:30 PM 68.0 °F - 33.8 °F 28% 30.18 in - NE 9.2 mph - N/A   Clear
5:00 PM 66.2 °F - 32.0 °F 28% 30.18 in - NE 8.1 mph - N/A   Clear
5:30 PM 64.4 °F - 32.0 °F 30% 30.18 in - NE 5.8 mph - N/A   Clear
6:00 PM 60.8 °F - 32.0 °F 34% 30.18 in - NNE 6.9 mph - N/A   Clear
6:30 PM 57.2 °F - 33.8 °F 41% 30.15 in - NNE 5.8 mph - N/A   Clear
7:00 PM 57.2 °F - 33.8 °F 41% 30.18 in - NNE 2.3 mph - N/A   Clear
7:30 PM 55.4 °F - 33.8 °F 44% 30.18 in - Variable 1.2 mph - N/A   Clear
8:00 PM 53.6 °F - 33.8 °F 47% 30.18 in - NNE 2.3 mph - N/A   Clear
8:30 PM 50.0 °F - 33.8 °F 54% 30.18 in - NNE 5.8 mph - N/A   Clear
9:00 PM 48.2 °F - 33.8 °F 58% 30.18 in - NNE 3.5 mph - N/A   Clear
9:30 PM 48.2 °F - 33.8 °F 58% 30.18 in - ENE 4.6 mph - N/A   Clear
10:00 PM 50.0 °F - 33.8 °F 54% 30.18 in - Variable 2.3 mph - N/A   Clear
10:30 PM 48.2 °F - 33.8 °F 58% 30.18 in - Variable 2.3 mph - N/A   Clear
11:00 PM 44.6 °F - 32.0 °F 61% 30.18 in - NNE 2.3 mph - N/A   Clear
11:30 PM 44.6 °F - 35.6 °F 71% 30.21 in - Variable 2.3 mph - N/A   Clear